FW5225 Weather Reports


Display with metric or nautical units.
time (UTC)temp
F
wind
direction
speed
MPH
gust
MPH
rain 1hr
in
rain 24hr
in
rain mn
in
humidity
%
barometer
mb
20260503223526 95 272 4.0 11.0 0.00 0.00 0.00 13 1004.1
20260503223026 95 211 1.0 8.0 0.00 0.00 0.00 13 1004.2
20260503222524 95 293 3.0 8.0 0.00 0.00 0.00 13 1004.2
20260503222025 95 232 2.0 6.0 0.00 0.00 0.00 14 1004.3
20260503221523 94 329 0.0 5.0 0.00 0.00 0.00 13 1004.4
20260503221023 94 262 2.0 6.0 0.00 0.00 0.00 13 1004.6
20260503220521 94 186 1.0 7.0 0.00 0.00 0.00 13 1004.7
20260503220020 94 265 3.0 8.0 0.00 0.00 0.00 13 1004.9
20260503215520 94 277 3.0 8.0 0.00 0.00 0.00 13 1004.9
20260503215018 94 255 4.0 8.0 0.00 0.00 0.00 13 1005.1
20260503214535 94 274 2.0 7.0 0.00 0.00 0.00 13 1005.1
20260503214017 94 167 3.0 7.0 0.00 0.00 0.00 13 1005.2
20260503213516 94 284 2.0 8.0 0.00 0.00 0.00 13 1005.3
20260503213016 94 232 4.0 9.0 0.00 0.00 0.00 13 1005.4
20260503212518 94 266 1.0 9.0 0.00 0.00 0.00 13 1005.4
20260503212017 95 239 3.0 9.0 0.00 0.00 0.00 13 1005.5
20260503211515 95 325 5.0 9.0 0.00 0.00 0.00 13 1005.5
20260503211015 95 144 2.0 7.0 0.00 0.00 0.00 14 1005.5
20260503210514 95 206 2.0 9.0 0.00 0.00 0.00 13 1005.7
20260503210014 95 225 2.0 9.0 0.00 0.00 0.00 13 1005.7
20260503205513 95 244 2.0 9.0 0.00 0.00 0.00 13 1005.8
20260503205012 95 239 4.0 9.0 0.00 0.00 0.00 14 1005.9
20260503204511 94 241 2.0 8.0 0.00 0.00 0.00 13 1005.9
20260503204009 94 267 2.0 8.0 0.00 0.00 0.00 14 1006.0
20260503203508 94 274 3.0 10.0 0.00 0.00 0.00 13 1006.1
20260503203008 94 294 4.0 10.0 0.00 0.00 0.00 15 1006.2
20260503202508 94 144 0.0 6.0 0.00 0.00 0.00 15 1006.2
20260503202007 94 265 2.0 8.0 0.00 0.00 0.00 14 1006.3
20260503201507 94 226 2.0 8.0 0.00 0.00 0.00 14 1006.4
20260503201009 94 242 3.0 8.0 0.00 0.00 0.00 14 1006.4
20260503200505 94 215 2.0 7.0 0.00 0.00 0.00 14 1006.5
20260503200004 94 265 1.0 5.0 0.00 0.00 0.00 14 1006.6
20260503195503 94 253 1.0 8.0 0.00 0.00 0.00 14 1006.7
20260503195002 93 263 3.0 9.0 0.00 0.00 0.00 14 1006.8
20260503194502 94 192 3.0 9.0 0.00 0.00 0.00 14 1006.8
20260503194001 94 201 3.0 9.0 0.00 0.00 0.00 14 1006.9
20260503193601 93 171 2.0 8.0 0.00 0.00 0.00 15 1006.9
20260503193105 94 221 2.0 9.0 0.00 0.00 0.00 14 1007.0
20260503192558 93 229 1.0 9.0 0.00 0.00 0.00 14 1007.1
20260503192057 93 213 1.0 6.0 0.00 0.00 0.00 14 1007.2
20260503191605 93 145 0.0 7.0 0.00 0.00 0.00 15 1007.3
20260503191056 93 148 2.0 6.0 0.00 0.00 0.00 16 1007.5
20260503190555 93 215 2.0 6.0 0.00 0.00 0.00 16 1007.5
20260503190054 93 144 2.0 5.0 0.00 0.00 0.00 16 1007.4
20260503185552 92 192 1.0 6.0 0.00 0.00 0.00 16 1007.4
20260503185051 92 192 1.0 6.0 0.00 0.00 0.00 18 1007.5
20260503184600 92 163 2.0 6.0 0.00 0.00 0.00 18 1007.6
20260503184049 91 168 2.0 6.0 0.00 0.00 0.00 17 1007.8
20260503183549 90 189 1.0 5.0 0.00 0.00 0.00 19 1007.9
20260503183046 90 112 2.0 6.0 0.00 0.00 0.00 19 1008.0
20260503182545 90 355 1.0 8.0 0.00 0.00 0.00 21 1008.0
20260503182044 89 97 3.0 8.0 0.00 0.00 0.00 20 1008.2
20260503181607 89 185 3.0 9.0 0.00 0.00 0.00 20 1008.2
20260503181042 89 244 1.0 9.0 0.00 0.00 0.00 22 1008.2
20260503180541 89 109 2.0 7.0 0.00 0.00 0.00 20 1008.3
20260503180050 88 220 1.0 8.0 0.00 0.00 0.00 22 1008.5
20260503175538 88 90 3.0 9.0 0.00 0.00 0.00 22 1008.5
20260503175037 87 138 3.0 9.0 0.00 0.00 0.00 23 1008.6
20260503174545 87 95 3.0 9.0 0.00 0.00 0.00 22 1008.6
20260503174035 86 116 3.0 8.0 0.00 0.00 0.00 24 1008.6
20260503173533 86 136 2.0 9.0 0.00 0.00 0.00 24 1008.7
20260503173041 85 78 1.0 9.0 0.00 0.00 0.00 25 1008.8
20260503172530 85 162 3.0 8.0 0.00 0.00 0.00 25 1008.8
20260503172031 84 107 3.0 8.0 0.00 0.00 0.00 26 1008.8
20260503171527 84 72 3.0 11.0 0.00 0.00 0.00 26 1008.9
20260503171029 83 86 2.0 11.0 0.00 0.00 0.00 27 1008.9
20260503170530 83 130 3.0 8.0 0.00 0.00 0.00 27 1008.9
20260503151004 78 50 2.0 8.0 0.00 0.00 0.00 31 1008.7
20260503150507 78 81 4.0 8.0 0.00 0.00 0.00 30 1008.7
20260503131042 77 56 4.0 9.0 0.00 0.00 0.00 29 1007.8
20260503130541 77 45 4.0 9.0 0.00 0.00 0.00 28 1007.8
20260503110535 78 54 3.0 6.0 0.00 0.00 0.00 24 1007.7
20260503081535 76 35 0.0 3.0 0.00 0.00 0.00 24 1007.9
20260503081019 76 17 0.0 4.0 0.00 0.00 0.00 23 1008.0
20260503080519 76 5 0.0 4.0 0.00 0.00 0.00 22 1008.1
20260503072519 76 125 2.0 7.0 0.00 0.00 0.00 23 1008.3
20260503072015 76 104 0.0 0.0 0.00 0.00 0.00 24 1008.1
20260503071514 76 33 0.0 0.0 0.00 0.00 0.00 25 1007.9
20260503071013 76 33 0.0 0.0 0.00 0.00 0.00 25 1007.9
20260503070512 76 33 0.0 0.0 0.00 0.00 0.00 26 1007.8
20260503055009 76 360 0.0 2.0 0.00 0.00 0.00 28 1007.5
20260503054515 77 37 0.0 2.0 0.00 0.00 0.00 28 1007.4
20260503054009 77 11 0.0 2.0 0.00 0.00 0.00 30 1007.5
20260503053509 77 344 0.0 2.0 0.00 0.00 0.00 25 1007.5
20260503053010 77 344 0.0 2.0 0.00 0.00 0.00 27 1007.6
20260503052509 77 344 0.0 0.0 0.00 0.00 0.00 28 1007.6
20260503052009 77 344 0.0 2.0 0.00 0.00 0.00 27 1007.5
20260503051517 77 344 0.0 2.0 0.00 0.00 0.00 27 1007.4
20260503051008 77 344 0.0 2.0 0.00 0.00 0.00 28 1007.4
20260503050508 77 355 0.0 2.0 0.00 0.00 0.00 29 1007.5
20260503050008 77 24 0.0 2.0 0.00 0.00 0.00 28 1007.5
20260503045507 77 10 0.0 0.0 0.00 0.00 0.00 32 1007.5
20260503045008 77 10 0.0 2.0 0.00 0.00 0.00 28 1007.6
20260503044508 77 10 0.0 2.0 0.00 0.00 0.00 27 1007.5
20260503044007 77 10 0.0 2.0 0.00 0.00 0.00 25 1007.6
20260503043508 77 10 0.0 2.0 0.00 0.00 0.00 31 1007.5
20260503043007 77 10 0.0 2.0 0.00 0.00 0.00 29 1007.4
20260503042507 77 33 0.0 2.0 0.00 0.00 0.00 31 1007.4
20260503042007 77 33 0.0 2.0 0.00 0.00 0.00 26 1007.3
20260503041506 77 37 0.0 2.0 0.00 0.00 0.00 28 1007.2
20260503041010 77 37 0.0 2.0 0.00 0.00 0.00 30 1007.2
20260503040506 78 37 1.0 2.0 0.00 0.00 0.00 29 1007.1
20260503040006 78 28 0.0 2.0 0.00 0.00 0.00 31 1007.1
20260503035505 79 37 0.0 2.0 0.00 0.00 0.00 25 1006.9
20260503035005 79 40 1.0 2.0 0.00 0.00 0.00 28 1006.8
20260503034506 80 36 0.0 2.0 0.00 0.00 0.00 26 1006.9
20260503034004 81 28 0.0 1.0 0.00 0.00 0.00 27 1006.8
20260503033507 81 42 0.0 1.0 0.00 0.00 0.00 19 1006.8
20260503033010 81 42 0.0 1.0 0.00 0.00 0.00 21 1006.7
20260503032506 82 42 0.0 2.0 0.00 0.00 0.00 21 1006.7
20260503032004 82 32 0.0 2.0 0.00 0.00 0.00 23 1006.7
20260503031504 83 13 0.0 3.0 0.00 0.00 0.00 21 1006.5
20260503031004 83 5 0.0 3.0 0.00 0.00 0.00 21 1006.5
20260503030505 83 360 0.0 3.0 0.00 0.00 0.00 20 1006.4
20260503030007 83 28 1.0 3.0 0.00 0.00 0.00 18 1006.3
20260503025503 84 39 1.0 2.0 0.00 0.00 0.00 18 1006.4
20260503025003 84 35 1.0 2.0 0.00 0.00 0.00 18 1006.4
20260503024503 84 9 0.0 2.0 0.00 0.00 0.00 20 1006.3
20260503024003 84 16 0.0 2.0 0.00 0.00 0.00 18 1006.3
20260503023503 84 13 0.0 2.0 0.00 0.00 0.00 20 1006.3
20260503023002 85 13 0.0 3.0 0.00 0.00 0.00 19 1006.3
20260503022502 85 360 0.0 3.0 0.00 0.00 0.00 18 1006.3
20260503022002 85 27 0.0 3.0 0.00 0.00 0.00 17 1006.3
20260503021502 85 21 1.0 3.0 0.00 0.00 0.00 18 1006.3
20260503021002 86 20 1.0 5.0 0.00 0.00 0.00 17 1006.3
20260503020502 86 13 1.0 5.0 0.00 0.00 0.00 17 1006.2
20260503020002 86 5 3.0 5.0 0.00 0.00 0.00 16 1006.3
20260503015500 86 29 2.0 5.0 0.00 0.00 0.00 19 1006.3
20260503015001 87 34 2.0 4.0 0.00 0.00 0.00 17 1006.3
20260503014501 87 32 1.0 4.0 0.00 0.00 0.00 18 1006.4
20260503014101 87 18 0.0 4.0 0.00 0.00 0.00 16 1006.4
20260503013600 87 59 1.0 4.0 0.00 0.00 0.00 16 1006.3
20260503013059 87 42 2.0 5.0 0.00 0.00 0.00 16 1006.3
20260503012559 88 37 2.0 5.0 0.00 0.00 0.00 16 1006.4
20260503012059 88 57 2.0 5.0 0.00 0.00 0.00 15 1006.4
20260503011604 88 46 2.0 5.0 0.00 0.00 0.00 17 1006.4
20260503011101 88 27 1.0 5.0 0.00 0.00 0.00 16 1006.4
20260503010558 89 5 1.0 4.0 0.00 0.00 0.00 18 1006.4
20260503010108 89 5 1.0 3.0 0.00 0.00 0.00 16 1006.4
20260503005559 89 23 0.0 5.0 0.00 0.00 0.00 16 1006.5
20260503005057 89 30 1.0 5.0 0.00 0.00 0.00 15 1006.6
20260503004557 90 24 3.0 5.0 0.00 0.00 0.00 16 1006.5
20260503004056 90 15 1.0 9.0 0.00 0.00 0.00 15 1006.6
20260503003555 90 148 0.0 9.0 0.00 0.00 0.00 15 1006.6
20260503003113 90 32 1.0 10.0 0.00 0.00 0.00 14 1006.6
20260503002555 90 325 1.0 11.0 0.00 0.00 0.00 15 1006.7
20260503002055 91 58 5.0 11.0 0.00 0.00 0.00 14 1006.6
20260503001555 92 61 4.0 8.0 0.00 0.00 0.00 14 1006.7
20260503001058 92 105 1.0 3.0 0.00 0.00 0.00 13 1006.7
20260503000554 92 35 0.0 3.0 0.00 0.00 0.00 15 1006.6
20260503000056 91 333 0.0 5.0 0.00 0.00 0.00 15 1006.6
20260502235554 91 45 3.0 5.0 0.00 0.00 0.00 14 1006.6
20260502235054 91 98 0.0 5.0 0.00 0.00 0.00 13 1006.7
20260502234554 92 15 1.0 5.0 0.00 0.00 0.00 14 1006.6
20260502234054 92 307 1.0 7.0 0.00 0.00 0.00 14 1006.7
20260502233554 91 42 2.0 7.0 0.00 0.00 0.00 16 1006.6
20260502233053 91 15 0.0 5.0 0.00 0.00 0.00 15 1006.6
20260502232552 91 350 2.0 5.0 0.00 0.00 0.00 14 1006.7
20260502232053 91 5 2.0 8.0 0.00 0.00 0.00 14 1006.7
20260502231554 91 5 4.0 8.0 0.00 0.00 0.00 15 1006.7
20260502231053 92 336 3.0 8.0 0.00 0.00 0.00 14 1006.7
20260502230555 92 5 4.0 8.0 0.00 0.00 0.00 15 1006.8
20260502230051 93 261 1.0 4.0 0.00 0.00 0.00 13 1006.9
20260502225550 93 286 0.0 6.0 0.00 0.00 0.00 14 1007.0
20260502225050 93 294 3.0 6.0 0.00 0.00 0.00 13 1007.0
20260502224550 93 311 0.0 9.0 0.00 0.00 0.00 14 1007.1
20260502224049 92 111 2.0 9.0 0.00 0.00 0.00 13 1007.1
20260502223548 92 136 1.0 8.0 0.00 0.00 0.00 13 1007.2